Hourly Weather Bolshie Ploty

Today, 20 June, Sunday

Time Temperature Precipitation Wind Pressure Humidity
00:00 +18°C° 0 mm 2 mps 748 mmHg 89%
01:00 +17°C° 0 mm 2 mps 748 mmHg 89%
02:00 +18°C° 0 mm 1 mps 748 mmHg 89%
03:00 +16°C° 0 mm 1 mps 748 mmHg 89%
04:00 +16°C° 0 mm 1 mps 748 mmHg 88%
05:00 +17°C° 0 mm 2 mps 748 mmHg 87%
06:00 +17°C° 0 mm 2 mps 748 mmHg 86%
07:00 +19°C° 0 mm 2 mps 748 mmHg 80%
08:00 +20°C° 0 mm 2 mps 748 mmHg 75%
09:00 +22°C° 0 mm 3 mps 748 mmHg 69%
10:00 +24°C° 0 mm 3 mps 748 mmHg 66%
11:00 +25°C° 0 mm 3 mps 748 mmHg 62%
12:00 +26°C° 0 mm 3 mps 748 mmHg 59%
13:00 +26°C° 0 mm 3 mps 747 mmHg 58%
14:00 +26°C° 0 mm 3 mps 747 mmHg 57%
15:00 +27°C° 0 mm 3 mps 747 mmHg 56%
16:00 +26°C° 0 mm 3 mps 747 mmHg 60%
17:00 +26°C° 0 mm 3 mps 746 mmHg 64%
18:00 +26°C° 0 mm 2 mps 746 mmHg 68%
19:00 +24°C° 0 mm 2 mps 746 mmHg 72%
20:00 +23°C° 0 mm 2 mps 746 mmHg 77%
21:00 +20°C° 0 mm 2 mps 746 mmHg 82%
22:00 +20°C° 0 mm 2 mps 746 mmHg 82%
23:00 +19°C° 0 mm 2 mps 746 mmHg 83%

Tomorrow, 21 June, Monday

Time Temperature Precipitation Wind Pressure Humidity
00:00 +19°C° 0 mm 2 mps 746 mmHg 84%
01:00 +18°C° 0 mm 2 mps 746 mmHg 85%
02:00 +18°C° 0 mm 2 mps 746 mmHg 86%
03:00 +18°C° 0 mm 2 mps 746 mmHg 87%
04:00 +18°C° 0 mm 2 mps 746 mmHg 87%
05:00 +18°C° 0 mm 2 mps 746 mmHg 88%
06:00 +19°C° 0 mm 2 mps 746 mmHg 88%
07:00 +20°C° 0 mm 3 mps 746 mmHg 83%
08:00 +22°C° 0 mm 3 mps 746 mmHg 78%
09:00 +23°C° 0 mm 4 mps 746 mmHg 72%
10:00 +25°C° 0 mm 4 mps 746 mmHg 69%
11:00 +26°C° 0 mm 4 mps 746 mmHg 65%
12:00 +27°C° 0 mm 5 mps 746 mmHg 62%
13:00 +28°C° 0 mm 5 mps 746 mmHg 62%
14:00 +28°C° 0 mm 5 mps 745 mmHg 61%
15:00 +28°C° 0 mm 4 mps 745 mmHg 61%
16:00 +28°C° 0 mm 4 mps 745 mmHg 66%
17:00 +27°C° 0 mm 4 mps 745 mmHg 71%
18:00 +27°C° 0 mm 3 mps 745 mmHg 75%
19:00 +26°C° 0 mm 3 mps 745 mmHg 79%
20:00 +24°C° 0 mm 3 mps 745 mmHg 83%
21:00 +22°C° 0 mm 3 mps 745 mmHg 87%
22:00 +21°C° 0 mm 3 mps 745 mmHg 88%
23:00 +21°C° 0 mm 3 mps 745 mmHg 90%

Day after tomorrow, 22 June, Tuesday

Time Temperature Precipitation Wind Pressure Humidity
00:00 +20°C° 0 mm 3 mps 745 mmHg 92%
01:00 +20°C° 0 mm 3 mps 745 mmHg 92%
02:00 +19°C° 0 mm 3 mps 745 mmHg 92%
03:00 +19°C° 0 mm 3 mps 745 mmHg 92%
04:00 +19°C° 0 mm 3 mps 745 mmHg 91%
05:00 +20°C° 0 mm 3 mps 745 mmHg 90%
06:00 +20°C° 0 mm 2 mps 745 mmHg 90%
07:00 +22°C° 0 mm 3 mps 746 mmHg 84%
08:00 +24°C° 0 mm 3 mps 746 mmHg 77%
09:00 +26°C° 0 mm 4 mps 746 mmHg 71%
10:00 +27°C° 0 mm 4 mps 746 mmHg 67%
11:00 +28°C° 0 mm 4 mps 746 mmHg 63%
12:00 +29°C° 0 mm 4 mps 746 mmHg 59%
13:00 +30°C° 0 mm 4 mps 746 mmHg 58%
14:00 +30°C° 0 mm 4 mps 746 mmHg 57%
15:00 +32°C° 0 mm 4 mps 746 mmHg 56%
16:00 +30°C° 0 mm 4 mps 745 mmHg 60%
17:00 +30°C° 0 mm 3 mps 745 mmHg 65%
18:00 +29°C° 0 mm 3 mps 745 mmHg 69%
19:00 +28°C° 0 mm 3 mps 745 mmHg 74%
20:00 +26°C° 0 mm 3 mps 745 mmHg 78%
21:00 +24°C° 0 mm 3 mps 745 mmHg 83%
22:00 +22°C° 0 mm 3 mps 745 mmHg 83%
23:00 +23°C° 0 mm 2 mps 745 mmHg 84%

23 June, Wednesday

Time Temperature Precipitation Wind Pressure Humidity
00:00 +21°C° 0 mm 2 mps 745 mmHg 84%
01:00 +21°C° 0 mm 2 mps 745 mmHg 84%
02:00 +20°C° 0 mm 2 mps 745 mmHg 84%
03:00 +20°C° 0 mm 2 mps 745 mmHg 84%
04:00 +20°C° 0 mm 2 mps 745 mmHg 84%
05:00 +20°C° 0 mm 2 mps 746 mmHg 84%
06:00 +21°C° 0 mm 2 mps 746 mmHg 84%
07:00 +22°C° 0 mm 3 mps 746 mmHg 80%
08:00 +25°C° 0 mm 3 mps 746 mmHg 75%
09:00 +27°C° 0 mm 3 mps 746 mmHg 70%
10:00 +28°C° 0 mm 3 mps 746 mmHg 65%
11:00 +29°C° 0 mm 3 mps 746 mmHg 61%
12:00 +30°C° 0 mm 3 mps 746 mmHg 56%
13:00 +30°C° 0 mm 3 mps 746 mmHg 54%
14:00 +31°C° 0 mm 3 mps 746 mmHg 53%
15:00 +31°C° 0 mm 3 mps 746 mmHg 51%
16:00 +31°C° 0 mm 3 mps 745 mmHg 57%
17:00 +30°C° 0 mm 3 mps 745 mmHg 62%
18:00 +30°C° 0 mm 3 mps 745 mmHg 67%
19:00 +28°C° 0 mm 3 mps 745 mmHg 71%
20:00 +26°C° 0 mm 2 mps 745 mmHg 76%
21:00 +25°C° 0 mm 2 mps 745 mmHg 80%
22:00 +24°C° 0 mm 2 mps 745 mmHg 81%
23:00 +24°C° 0 mm 2 mps 745 mmHg 82%

24 June, Thursday

Time Temperature Precipitation Wind Pressure Humidity
00:00 +23°C° 0 mm 2 mps 745 mmHg 83%
01:00 +23°C° 0 mm 2 mps 745 mmHg 83%
02:00 +21°C° 0 mm 2 mps 745 mmHg 84%
03:00 +21°C° 0 mm 2 mps 745 mmHg 84%
04:00 +21°C° 0 mm 2 mps 746 mmHg 84%
05:00 +23°C° 0 mm 2 mps 746 mmHg 84%
06:00 +23°C° 0 mm 2 mps 746 mmHg 84%
07:00 +25°C° 0 mm 2 mps 746 mmHg 80%
08:00 +26°C° 0 mm 2 mps 746 mmHg 76%
09:00 +28°C° 0 mm 2 mps 746 mmHg 71%
10:00 +29°C° 0 mm 2 mps 746 mmHg 68%
11:00 +30°C° 0 mm 2 mps 746 mmHg 64%
12:00 +31°C° 0 mm 2 mps 746 mmHg 60%
13:00 +31°C° 0 mm 2 mps 746 mmHg 57%
14:00 +32°C° 0 mm 2 mps 746 mmHg 55%
15:00 +32°C° 0 mm 2 mps 746 mmHg 53%
16:00 +32°C° 0 mm 2 mps 745 mmHg 57%
17:00 +31°C° 0 mm 2 mps 745 mmHg 61%
18:00 +31°C° 0 mm 2 mps 745 mmHg 65%
19:00 +29°C° 0 mm 2 mps 745 mmHg 69%
20:00 +28°C° 0 mm 2 mps 745 mmHg 72%
21:00 +26°C° 0 mm 2 mps 745 mmHg 76%
22:00 +25°C° 0.2 mm 1 mps 745 mmHg 79%
23:00 +24°C° 0.2 mm 1 mps 744 mmHg 81%

25 June, Friday

Time Temperature Precipitation Wind Pressure Humidity
00:00 +23°C° 0.2 mm 1 mps 744 mmHg 84%
01:00 +23°C° 0.3 mm 1 mps 744 mmHg 84%
02:00 +23°C° 0.3 mm 1 mps 744 mmHg 85%
03:00 +23°C° 0.3 mm 1 mps 744 mmHg 85%
04:00 +23°C° 0 mm 1 mps 744 mmHg 84%
05:00 +24°C° 0 mm 1 mps 744 mmHg 84%
06:00 +22°C° 0 mm 0 mps 744 mmHg 83%
07:00 +26°C° 0 mm 1 mps 744 mmHg 79%
08:00 +27°C° 0 mm 1 mps 744 mmHg 75%
09:00 +28°C° 0 mm 2 mps 744 mmHg 71%
10:00 +29°C° 0 mm 2 mps 744 mmHg 67%
11:00 +30°C° 0 mm 1 mps 744 mmHg 63%
12:00 +31°C° 0 mm 1 mps 744 mmHg 59%
13:00 +31°C° 0 mm 1 mps 744 mmHg 56%
14:00 +32°C° 0 mm 1 mps 744 mmHg 54%
15:00 +32°C° 0 mm 1 mps 744 mmHg 51%
16:00 +32°C° 0 mm 1 mps 743 mmHg 55%
17:00 +32°C° 0 mm 1 mps 743 mmHg 58%
18:00 +32°C° 0 mm 1 mps 742 mmHg 61%
19:00 +30°C° 0 mm 1 mps 742 mmHg 65%
20:00 +28°C° 0 mm 1 mps 742 mmHg 69%
21:00 +26°C° 0 mm 1 mps 742 mmHg 73%
22:00 +25°C° 0.4 mm 1 mps 742 mmHg 79%
23:00 +23°C° 0.4 mm 2 mps 742 mmHg 85%
Show more